TimeCST,TemperatureF,Dew PointF,Humidity,Sea Level PressureIn,VisibilityMPH,Wind Direction,Wind SpeedMPH,Gust SpeedMPH,PrecipitationIn,Events,Conditions,WindDirDegrees,DateUTC
12:15 AM,42.8,33.8,70,29.79,10.0,NE,8.1,-,N/A,,Clear,50,2014-01-27 06:15:00
12:35 AM,44.6,33.8,66,29.79,10.0,NE,6.9,-,N/A,,Clear,40,2014-01-27 06:35:00
12:55 AM,42.8,33.8,70,29.80,10.0,NE,6.9,-,N/A,,Clear,40,2014-01-27 06:55:00
1:15 AM,42.8,33.8,70,29.81,10.0,NNE,15.0,24.2,N/A,,Clear,20,2014-01-27 07:15:00
1:35 AM,44.6,32.0,61,29.83,10.0,North,11.5,-,N/A,,Clear,10,2014-01-27 07:35:00
1:55 AM,44.6,32.0,61,29.84,10.0,North,9.2,-,N/A,,Clear,10,2014-01-27 07:55:00
2:15 AM,42.8,32.0,66,29.86,10.0,North,12.7,-,N/A,,Clear,360,2014-01-27 08:15:00
2:35 AM,46.4,32.0,57,29.88,10.0,North,23.0,26.5,N/A,,Clear,360,2014-01-27 08:35:00
2:55 AM,46.4,30.2,53,29.90,10.0,North,27.6,32.2,N/A,,Clear,360,2014-01-27 08:55:00
3:15 AM,44.6,28.4,53,29.91,10.0,North,26.5,34.5,N/A,,Clear,360,2014-01-27 09:15:00
3:35 AM,44.6,26.6,49,29.94,10.0,North,24.2,32.2,N/A,,Clear,350,2014-01-27 09:35:00
3:55 AM,42.8,26.6,53,29.95,10.0,North,24.2,31.1,N/A,,Clear,360,2014-01-27 09:55:00
4:15 AM,42.8,24.8,49,29.96,10.0,North,21.9,29.9,N/A,,Clear,360,2014-01-27 10:15:00
4:35 AM,41.0,23.0,49,29.96,10.0,North,26.5,32.2,N/A,,Clear,360,2014-01-27 10:35:00
4:55 AM,39.2,21.2,49,29.98,10.0,North,21.9,34.5,N/A,,Clear,360,2014-01-27 10:55:00
5:15 AM,37.4,19.4,48,30.00,10.0,North,23.0,32.2,N/A,,Clear,350,2014-01-27 11:15:00
5:35 AM,37.4,17.6,45,30.01,10.0,North,25.3,31.1,N/A,,Clear,360,2014-01-27 11:35:00
5:55 AM,37.4,15.8,41,30.03,10.0,North,24.2,32.2,N/A,,Clear,360,2014-01-27 11:55:00
6:15 AM,35.6,12.2,38,30.04,10.0,North,19.6,29.9,N/A,,Clear,10,2014-01-27 12:15:00
6:35 AM,35.6,12.2,38,30.07,10.0,North,19.6,26.5,N/A,,Clear,360,2014-01-27 12:35:00
6:55 AM,35.6,10.4,35,30.08,10.0,North,19.6,25.3,N/A,,Clear,360,2014-01-27 12:55:00
7:15 AM,33.8,10.4,38,30.11,10.0,North,18.4,26.5,N/A,,Clear,350,2014-01-27 13:15:00
7:35 AM,33.8,8.6,35,30.12,10.0,North,20.7,25.3,N/A,,Clear,350,2014-01-27 13:35:00
7:55 AM,33.8,8.6,35,30.13,10.0,North,21.9,29.9,N/A,,Clear,360,2014-01-27 13:55:00
8:15 AM,33.8,8.6,35,30.14,10.0,North,20.7,27.6,N/A,,Clear,360,2014-01-27 14:15:00
8:35 AM,33.8,8.6,35,30.15,10.0,North,19.6,25.3,N/A,,Clear,360,2014-01-27 14:35:00
8:55 AM,33.8,6.8,32,30.18,10.0,North,21.9,26.5,N/A,,Clear,350,2014-01-27 14:55:00
9:15 AM,35.6,6.8,30,30.19,10.0,North,18.4,28.8,N/A,,Clear,10,2014-01-27 15:15:00
9:35 AM,35.6,6.8,30,30.20,10.0,North,20.7,25.3,N/A,,Clear,350,2014-01-27 15:35:00
9:55 AM,37.4,6.8,28,30.22,10.0,North,18.4,24.2,N/A,,Clear,360,2014-01-27 15:55:00
10:15 AM,37.4,6.8,28,30.23,10.0,North,18.4,24.2,N/A,,Clear,360,2014-01-27 16:15:00
10:35 AM,37.4,5.0,26,30.24,10.0,NNE,19.6,29.9,N/A,,Clear,20,2014-01-27 16:35:00
10:55 AM,37.4,3.2,24,30.24,10.0,NNE,23.0,-,N/A,,Clear,20,2014-01-27 16:55:00
11:15 AM,39.2,3.2,22,30.25,10.0,NNE,20.7,28.8,N/A,,Clear,30,2014-01-27 17:15:00
11:35 AM,39.2,3.2,22,30.25,10.0,North,17.3,28.8,N/A,,Clear,10,2014-01-27 17:35:00
11:55 AM,39.2,5.0,24,30.25,10.0,North,21.9,27.6,N/A,,Clear,10,2014-01-27 17:55:00
12:15 PM,39.2,3.2,22,30.24,10.0,North,19.6,24.2,N/A,,Clear,350,2014-01-27 18:15:00
12:35 PM,41.0,5.0,23,30.23,10.0,North,19.6,24.2,N/A,,Clear,360,2014-01-27 18:35:00
12:55 PM,41.0,3.2,21,30.23,10.0,North,19.6,27.6,N/A,,Clear,360,2014-01-27 18:55:00
1:15 PM,39.2,3.2,22,30.22,10.0,NNE,13.8,25.3,N/A,,Clear,20,2014-01-27 19:15:00
1:35 PM,39.2,3.2,22,30.21,10.0,North,13.8,19.6,N/A,,Clear,360,2014-01-27 19:35:00
1:55 PM,39.2,3.2,22,30.21,10.0,North,17.3,24.2,N/A,,Clear,10,2014-01-27 19:55:00
2:15 PM,39.2,3.2,22,30.20,10.0,North,19.6,24.2,N/A,,Clear,360,2014-01-27 20:15:00
2:35 PM,39.2,3.2,22,30.19,10.0,North,19.6,25.3,N/A,,Clear,360,2014-01-27 20:35:00
2:55 PM,39.2,3.2,22,30.20,10.0,North,21.9,25.3,N/A,,Clear,350,2014-01-27 20:55:00
3:15 PM,39.2,1.4,21,30.21,10.0,North,17.3,26.5,N/A,,Clear,10,2014-01-27 21:15:00
3:35 PM,37.4,1.4,22,30.21,10.0,North,18.4,25.3,N/A,,Clear,360,2014-01-27 21:35:00
3:55 PM,37.4,1.4,22,30.21,10.0,North,19.6,-,N/A,,Clear,350,2014-01-27 21:55:00
4:15 PM,37.4,3.2,24,30.22,10.0,North,16.1,23.0,N/A,,Clear,350,2014-01-27 22:15:00
4:35 PM,35.6,3.2,26,30.23,10.0,NNE,17.3,21.9,N/A,,Clear,20,2014-01-27 22:35:00
4:55 PM,35.6,1.4,24,30.23,10.0,North,19.6,23.0,N/A,,Clear,360,2014-01-27 22:55:00
5:15 PM,35.6,-0.4,22,30.25,10.0,North,16.1,-,N/A,,Clear,10,2014-01-27 23:15:00
5:35 PM,33.8,-0.4,23,30.24,10.0,North,18.4,-,N/A,,Clear,360,2014-01-27 23:35:00
5:55 PM,32.0,5.0,32,30.24,10.0,North,19.6,26.5,N/A,,Clear,360,2014-01-27 23:55:00
6:15 PM,30.2,1.4,29,30.25,10.0,North,19.6,-,N/A,,Clear,350,2014-01-28 00:15:00
6:35 PM,30.2,3.2,32,30.26,10.0,North,19.6,25.3,N/A,,Clear,360,2014-01-28 00:35:00
6:55 PM,28.4,3.2,34,30.26,10.0,North,17.3,23.0,N/A,,Clear,360,2014-01-28 00:55:00
7:15 PM,28.4,1.4,31,30.26,10.0,North,18.4,26.5,N/A,,Clear,10,2014-01-28 01:15:00
7:35 PM,28.4,-0.4,29,30.26,10.0,North,21.9,28.8,N/A,,Clear,10,2014-01-28 01:35:00
7:55 PM,28.4,-0.4,29,30.27,10.0,North,21.9,26.5,N/A,,Clear,360,2014-01-28 01:55:00
8:15 PM,26.6,-0.4,31,30.27,10.0,North,16.1,24.2,N/A,,Clear,10,2014-01-28 02:15:00
8:35 PM,26.6,1.4,34,30.28,10.0,North,13.8,21.9,N/A,,Clear,10,2014-01-28 02:35:00
8:55 PM,26.6,1.4,34,30.28,10.0,North,16.1,-,N/A,,Clear,10,2014-01-28 02:55:00
9:15 PM,26.6,1.4,34,30.29,10.0,NNE,17.3,-,N/A,,Clear,20,2014-01-28 03:15:00
9:35 PM,26.6,1.4,34,30.30,10.0,North,17.3,21.9,N/A,,Clear,10,2014-01-28 03:35:00
9:55 PM,26.6,1.4,34,30.29,10.0,NNE,16.1,24.2,N/A,,Clear,20,2014-01-28 03:55:00
10:15 PM,26.6,1.4,34,30.29,10.0,NNE,13.8,-,N/A,,Clear,20,2014-01-28 04:15:00
10:35 PM,26.6,1.4,34,30.30,10.0,North,12.7,-,N/A,,Clear,10,2014-01-28 04:35:00
10:55 PM,26.6,-0.4,31,30.30,10.0,North,13.8,18.4,N/A,,Clear,10,2014-01-28 04:55:00
11:15 PM,26.6,-0.4,31,30.30,10.0,NNE,15.0,-,N/A,,Clear,20,2014-01-28 05:15:00
11:35 PM,26.6,-0.4,31,30.30,10.0,NNE,15.0,-,N/A,,Clear,20,2014-01-28 05:35:00
11:55 PM,26.6,-0.4,31,30.31,10.0,North,15.0,-,N/A,,Clear,10,2014-01-28 05:55:00